Bryce Canyon, UT

11:58 AM MST on December 06, 2019 (GMT -0700)
Bryce Canyon

Weather History for KBCE - August, 2019

Change the Weather History Date:

Monday, August 19, 2019

  Actual Average Record
Temperature  
Mean Temperature 60 °F -  
Max Temperature 80 °F 74 °F 86 °F (1960)
Min Temperature 41 °F 44 °F 34 °F (1968)
Degree Days  
Heating Degree Days 5    
Growing Degree Days 10 (Base 50)    
Moisture  
Dew Point 28 °F    
Average Humidity 34    
Maximum Humidity 62    
Minimum Humidity 12    
Precipitation  
Precipitation 0.00 in - - ()
Sea Level Pressure  
Sea Level Pressure 30.01 in    
Wind  
Wind Speed 6 mph (SW)    
Max Wind Speed 18 mph    
Max Gust Speed 22 mph    
Visibility 10 miles    
Events      
Averages and records for this station are not official NWS values.
T = Trace of Precipitation, MM = Missing Value Source: NWS Daily Summary

Daily Weather History Graph

Daily Weather History Graph

Search for Another Location

Airport or City:

Astronomy

Aug. 19, 2019 Rise Set
Actual Time 6:47 AM MDT 8:16 PM MDT
Civil Twilight 6:19 AM MDT 8:43 PM MDT
Nautical Twilight 5:46 AM MDT 9:16 PM MDT
Astronomical Twilight 5:11 AM MDT 9:51 PM MDT
Moon 10:43 PM MDT (8/19) 10:28 AM MDT (8/19)
Length of Visible Light 14h 23m
Length of Day
13h 28m
Waning Gibbous, 85% of the Moon is Illuminated
Aug 19
Waning Gibbous
Aug 23
Last Quarter
Aug 30
New
Sep 5
First Quarter
Sep 13
Full

Hourly Weather History & Observations

Time (MDT) Temp. Windchill Dew Point Humidity Pressure Visibility Wind Dir Wind Speed Gust Speed Precip Events Conditions
12:53 AM 51.1 °F - 28.0 °F 41% 29.93 in 10.0 mi Calm Calm - N/A   Clear
1:53 AM 48.9 °F - 28.9 °F 46% 29.94 in 10.0 mi West 8.1 mph - N/A   Clear
2:53 AM 45.0 °F 43.5 °F 28.9 °F 53% 29.96 in 10.0 mi West 3.5 mph - N/A   Clear
3:53 AM 41.0 °F 38.0 °F 28.9 °F 62% 29.98 in 10.0 mi WSW 4.6 mph - N/A   Clear
4:53 AM 42.1 °F 37.7 °F 28.9 °F 60% 29.98 in 10.0 mi West 6.9 mph - N/A   Clear
5:53 AM 42.1 °F 38.4 °F 28.0 °F 58% 29.98 in 10.0 mi West 5.8 mph - N/A   Clear
6:53 AM 41.0 °F 37.1 °F 28.0 °F 60% 30.01 in 10.0 mi West 5.8 mph - N/A   Clear
7:53 AM 48.0 °F - 30.9 °F 52% 30.03 in 10.0 mi WSW 4.6 mph - N/A   Clear
8:53 AM 57.0 °F - 36.0 °F 45% 30.04 in 8.0 mi WSW 3.5 mph - N/A   Clear
9:53 AM 66.9 °F - 34.0 °F 30% 30.02 in 10.0 mi Calm Calm - N/A   Clear
10:53 AM 71.1 °F - 32.0 °F 24% 30.03 in 10.0 mi SSW 6.9 mph - N/A   Clear
11:53 AM 75.0 °F - 30.9 °F 20% 30.02 in 10.0 mi ESE 10.4 mph 17.3 mph N/A   Clear
12:53 PM 78.1 °F - 26.1 °F 15% 29.99 in 10.0 mi SSW 13.8 mph 21.9 mph N/A   Clear
1:53 PM 77.0 °F - 21.9 °F 13% 29.99 in 10.0 mi SSE 18.4 mph - N/A   Clear
2:53 PM 78.1 °F - 21.9 °F 12% 29.99 in 10.0 mi South 16.1 mph 21.9 mph N/A   Clear
3:27 PM 77.0 °F - 24.1 °F 14% 30.34 in 10.0 mi SW 13.8 mph - N/A   Clear
3:53 PM 79.0 °F - 25.0 °F 14% 30.01 in 10.0 mi SSW 10.4 mph - N/A   Clear
4:53 PM 78.1 °F - 23.0 °F 13% 29.99 in 10.0 mi SW 6.9 mph - N/A   Clear
5:53 PM 78.1 °F - 23.0 °F 13% 29.98 in 10.0 mi SW 5.8 mph - N/A   Clear
6:53 PM 75.0 °F - 24.1 °F 15% 29.99 in 10.0 mi SW 9.2 mph - N/A   Partly Cloudy
7:53 PM 72.0 °F - 26.1 °F 18% 29.97 in 10.0 mi SSW 6.9 mph - N/A   Scattered Clouds
8:53 PM 55.9 °F - 30.9 °F 39% 30.01 in 10.0 mi Calm Calm - N/A   Partly Cloudy
9:53 PM 54.0 °F - 27.0 °F 35% 29.99 in 10.0 mi WSW 8.1 mph - N/A   Clear
10:53 PM 48.0 °F - 27.0 °F 44% 30.01 in 7.0 mi WSW 4.6 mph - N/A   Clear
11:53 PM 46.9 °F - 25.0 °F 42% 30.01 in 6.0 mi Calm Calm - N/A   Haze